Wind_Speed
24 25 27 28 28 27 26 24 24 26 28 30 32 33 34 34 35 35 35 36 36 36 37 37 39 40 41 42 42 43 44 45 47 46 46 45 46 48 47 45 44 42 39 38 38 38 39 41 41 41 41 39 37 38 38 37 36 37 40 40 39 40 41
24 26 28 28 27 28 28 28 27 28 30 31 33 34 35 36 37 37 37 37 37 37 37 38 39 39 40 41 42 43 44 45 45 45 45 45 46 47 46 44 44 43 41 40 39 39 40 41 42 42 42 39 37 39 39 38 38 38 41 42 40 39 40
25 27 28 27 28 30 30 29 29 30 31 32 34 35 36 37 38 38 38 38 39 38 39 39 39 39 40 40 41 42 43 44 45 45 44 44 44 46 45 43 41 42 42 42 41 41 40 41 41 41 41 40 39 39 38 39 39 39 41 42 41 40 41
26 28 29 28 30 32 32 31 31 31 32 34 35 36 37 38 39 38 39 40 41 40 40 40 40 40 40 40 41 42 43 44 44 44 44 44 43 44 45 43 41 39 39 39 40 40 40 40 39 40 40 38 39 40 39 40 40 40 41 43 42 41 40
26 29 30 29 31 33 34 34 34 34 34 36 37 38 38 39 39 39 40 41 42 42 42 41 41 42 42 42 42 42 42 43 43 43 43 43 42 43 44 43 40 38 37 37 37 39 40 39 39 39 40 38 39 40 40 41 42 41 42 44 42 41 40
27 30 29 28 32 35 36 37 36 36 36 38 39 40 39 39 39 40 41 42 42 42 42 42 42 42 43 43 43 43 42 41 41 41 41 41 40 40 41 42 39 37 37 37 37 38 39 39 39 39 40 40 40 40 40 42 43 41 41 43 43 41 41
28 30 29 29 33 36 36 37 37 37 38 39 41 41 40 40 40 42 42 42 42 42 42 42 42 43 43 43 43 42 41 40 39 39 39 38 37 37 38 38 37 38 38 38 37 37 38 38 38 38 38 38 39 39 39 40 41 40 41 43 43 42 41
28 29 29 30 33 36 36 36 37 38 38 39 40 41 40 40 42 43 43 43 42 42 42 42 42 42 41 41 41 40 39 39 39 38 36 35 35 36 36 35 36 38 39 38 36 36 36 36 36 36 37 37 37 37 37 37 38 37 37 39 40 40 40
28 30 30 31 35 36 35 35 37 38 39 39 40 41 41 42 43 44 43 43 43 43 42 42 41 41 40 39 39 39 38 38 38 36 35 33 33 34 35 35 36 36 36 36 34 34 35 35 35 35 35 36 36 35 34 35 35 35 34 34 35 36 36
28 30 31 34 36 35 33 34 37 39 40 41 41 41 42 42 43 44 44 44 44 43 42 42 42 41 39 38 38 37 37 36 36 35 35 34 34 34 35 35 35 34 33 32 31 32 34 34 34 33 33 33 33 32 32 32 32 33 33 32 31 32 33
28 30 32 36 36 34 34 36 38 39 40 41 41 42 42 42 42 43 43 43 43 43 43 43 42 40 39 37 36 36 35 34 34 34 35 34 35 35 34 33 32 31 29 28 28 29 32 32 31 30 30 29 29 29 30 30 30 31 31 32 32 31 32
28 30 33 36 36 34 35 38 40 41 41 41 41 41 41 42 42 42 43 43 43 43 43 43 42 40 39 37 36 35 34 33 33 34 34 34 34 33 31 29 29 27 26 26 26 26 27 28 28 27 27 28 27 27 27 27 29 30 30 32 33 33 33
29 31 35 37 36 35 37 40 41 41 41 41 41 41 41 42 43 43 44 44 44 43 43 43 42 41 39 37 36 35 34 33 34 34 34 33 33 30 28 27 26 25 24 25 25 25 25 24 25 26 26 26 26 26 26 25 25 27 28 30 32 33 33
31 33 35 37 37 36 38 41 42 41 41 41 41 41 42 42 43 44 45 46 45 44 44 43 42 41 40 37 35 34 33 33 33 32 32 32 30 28 25 25 25 23 22 21 22 24 25 23 24 25 24 23 24 24 25 24 23 23 25 28 30 31 32
33 35 36 38 37 36 39 42 42 41 41 41 41 42 42 43 44 45 46 47 46 45 44 43 42 41 40 37 35 33 33 33 33 31 30 29 28 26 25 24 22 20 20 18 18 20 23 22 21 21 19 19 21 23 24 24 24 24 25 27 29 29 30
35 36 38 38 37 37 40 43 42 41 41 41 41 42 43 44 45 45 46 47 47 46 44 42 40 39 39 37 35 33 33 32 32 30 28 27 27 26 24 23 20 19 19 19 18 20 21 20 18 17 15 16 18 20 22 23 24 24 24 26 27 28 28
37 37 38 38 37 38 41 42 41 42 42 42 43 43 44 45 45 45 46 47 47 46 44 41 38 38 38 37 34 33 32 31 30 28 26 25 26 26 24 22 20 19 20 20 19 19 19 18 17 15 14 15 16 18 20 21 22 23 23 24 25 26 26
38 38 37 37 38 40 42 42 41 41 42 43 43 44 44 45 45 45 46 47 47 46 43 40 38 38 38 36 33 32 31 30 29 27 25 25 25 25 24 22 19 17 18 19 19 18 17 16 16 16 15 15 16 17 18 19 21 23 23 22 23 25 25
38 37 36 37 39 42 43 42 41 41 42 43 43 44 44 44 45 45 45 46 46 44 41 39 37 37 36 34 31 30 29 29 27 26 25 24 24 23 23 23 20 16 16 16 16 17 17 15 14 16 16 17 17 17 17 18 19 20 20 20 22 24 24
37 36 36 38 40 42 42 41 40 42 43 43 43 44 44 44 45 45 45 45 45 42 39 37 36 36 34 32 30 29 28 27 26 26 25 23 23 22 22 22 20 17 17 16 15 16 16 14 14 15 16 16 16 17 17 17 17 17 17 18 21 23 24
38 38 38 39 40 41 41 40 40 42 43 43 44 44 44 45 45 45 45 44 42 40 37 35 35 36 34 32 29 28 26 26 25 25 25 24 23 21 20 21 19 17 17 16 15 16 15 14 14 15 15 15 15 15 17 17 16 16 17 18 20 22 23
41 40 39 39 39 39 38 38 40 42 42 43 43 44 45 45 45 44 43 41 40 38 35 33 34 34 33 31 28 27 26 25 25 25 25 24 24 21 19 19 19 17 15 14 14 15 15 14 14 14 14 14 13 13 15 16 16 18 19 17 16 19 20
42 40 39 39 38 36 36 38 41 42 42 42 43 43 44 44 43 42 41 40 39 37 33 31 32 31 29 28 28 27 25 25 26 25 25 25 24 23 20 19 19 18 16 14 13 13 15 15 13 12 11 11 11 11 13 14 16 19 21 18 14 14 15
41 40 40 39 36 34 36 39 41 41 40 41 42 43 43 43 42 41 41 40 38 35 31 29 30 29 28 28 28 27 26 26 26 26 25 24 23 23 21 20 19 17 16 14 13 13 15 15 13 10 9 8 8 8 10 11 14 18 20 19 16 12 12
43 42 41 39 36 36 37 39 40 40 39 40 42 43 43 42 41 41 41 40 37 34 31 29 30 31 31 30 29 27 26 26 26 26 25 24 22 21 21 20 18 16 14 14 13 13 13 14 12 10 8 6 5 5 7 9 11 14 17 19 17 13 16
43 42 41 40 39 39 39 40 41 40 39 41 42 42 41 40 40 40 40 39 36 34 33 31 30 31 32 32 29 26 25 26 26 25 25 24 22 20 19 19 18 16 13 12 12 12 12 12 11 9 8 6 4 5 4 5 8 10 13 15 14 12 14
42 42 42 41 41 41 41 40 40 40 41 42 42 41 40 38 38 39 39 37 36 35 34 33 31 31 31 31 29 26 25 26 26 25 24 23 22 19 18 18 18 17 13 11 11 11 11 10 10 9 8 7 5 4 6 2 5 9 11 12 14 15 11
43 43 43 42 42 42 41 41 41 42 43 42 40 39 38 38 38 39 38 37 37 36 35 34 32 31 30 29 28 27 26 26 25 24 22 22 22 20 18 17 17 17 15 12 10 11 11 9 10 10 10 8 6 4 4 5 1 6 12 13 16 19 15
44 43 43 43 43 42 42 42 42 43 43 41 39 37 37 38 39 40 39 39 37 35 33 33 33 31 29 28 27 26 25 25 25 23 21 21 21 20 19 17 16 16 15 12 11 11 11 9 9 11 13 11 8 6 4 3 4 2 9 14 18 21 18
45 44 44 44 44 43 42 42 43 43 42 40 38 38 38 39 40 41 39 38 35 32 30 31 32 30 28 26 24 22 22 22 23 23 21 20 20 20 19 17 16 15 15 13 12 11 11 9 9 10 13 13 12 9 7 7 5 2 2 9 17 21 18
44 43 44 44 44 44 44 43 43 43 41 38 38 39 39 40 41 41 38 34 32 29 27 28 30 29 27 25 22 19 19 20 21 21 21 21 20 19 18 17 16 15 15 14 13 12 11 10 9 10 11 13 14 13 10 8 9 7 3 2 9 17 20
43 43 44 45 45 45 45 44 43 42 41 39 38 39 40 40 40 39 37 34 31 28 25 25 27 27 25 23 20 19 20 20 20 21 21 21 20 19 18 17 16 15 15 15 15 14 13 11 9 9 10 11 13 14 13 10 9 9 7 5 3 8 16
44 44 44 45 46 46 45 44 42 41 40 39 38 39 40 39 38 37 36 34 31 27 24 23 24 24 23 21 19 19 20 20 19 20 20 20 19 18 18 17 16 16 16 16 16 16 15 13 11 10 9 9 10 13 13 12 10 9 9 7 5 4 7
45 45 45 45 46 46 45 43 41 39 38 37 37 39 39 39 37 36 35 32 29 27 24 22 21 21 21 20 19 18 18 19 18 18 19 19 18 17 17 17 16 15 15 16 16 16 16 15 14 12 11 9 9 10 12 13 11 10 9 8 7 6 5
44 45 45 45 46 46 45 42 40 38 37 36 36 37 39 39 38 36 34 30 26 24 23 22 20 19 20 20 19 18 17 18 18 18 18 18 18 17 16 16 15 15 14 15 16 16 16 16 15 14 13 12 10 9 10 12 13 11 10 9 8 7 7
44 45 45 45 46 45 42 39 37 37 37 37 37 37 40 41 39 37 34 29 25 23 23 21 19 19 19 20 19 18 18 19 19 19 18 18 19 18 17 16 15 14 13 14 14 15 15 15 16 16 15 14 13 11 10 11 13 13 12 11 10 9 8
44 45 46 45 44 42 38 37 37 38 39 40 39 39 41 42 40 37 34 30 25 24 23 22 20 19 19 19 19 19 19 20 20 20 19 18 18 19 18 17 16 14 13 12 13 14 14 14 15 15 16 15 15 14 12 11 12 14 14 13 12 11 10
46 47 47 46 44 42 41 40 42 42 41 40 39 38 40 43 42 38 33 29 25 23 23 23 23 21 20 19 19 20 20 21 22 22 20 19 18 18 19 19 18 17 15 13 12 12 13 13 13 14 15 15 16 16 15 13 13 13 14 15 15 14 12
Wind_Direction
333 331 326 323 325 328 330 327 322 320 319 321 323 323 323 322 320 319 317 314 312 309 306 304 302 300 299 298 298 296 295 295 296 297 297 296 293 291 291 290 286 281 279 278 276 277 279 279 279 278 275 270 268 266 265 263 262 259 256 254 252 252 253
331 327 322 323 328 331 332 329 325 322 320 320 321 322 322 320 319 318 316 314 312 310 307 305 303 301 299 299 298 298 297 296 296 297 296 295 293 291 292 291 287 284 284 286 284 282 281 280 279 278 275 271 268 267 264 262 261 258 256 253 252 252 253
327 322 319 322 328 332 332 329 325 322 320 320 321 322 321 319 318 318 316 315 313 311 309 306 304 303 302 301 301 300 298 298 297 297 296 295 292 291 291 291 289 286 283 284 285 283 280 277 276 274 273 271 267 263 261 260 260 258 256 255 253 254 254
321 317 317 322 327 331 330 327 324 322 321 321 321 320 320 318 318 318 317 316 314 312 310 307 306 306 305 304 303 303 302 301 300 299 298 296 293 290 290 291 291 288 285 282 281 279 275 273 271 268 268 269 267 263 260 258 257 255 256 255 255 255 254
313 313 316 320 324 327 327 325 325 324 323 321 320 320 320 319 319 319 318 316 314 312 310 308 308 308 307 306 305 305 305 303 303 302 300 299 296 292 290 291 291 289 285 281 277 275 272 271 267 264 262 262 263 263 260 258 256 255 255 255 255 256 255
308 310 315 320 322 325 326 325 324 324 322 321 321 321 321 319 319 319 317 315 313 311 310 308 308 308 308 307 307 306 306 305 304 304 303 301 298 293 291 291 290 287 282 278 274 272 270 268 265 262 261 259 259 258 256 254 254 254 254 254 255 255 254
307 309 314 320 321 323 325 322 321 322 322 322 322 321 320 319 319 318 316 314 312 310 309 308 308 308 308 308 308 307 306 305 305 304 303 301 298 294 291 289 287 283 279 276 273 271 269 267 265 262 260 260 261 260 256 252 253 254 254 253 253 253 252
309 310 314 318 319 321 322 320 320 323 322 321 321 320 320 319 318 317 316 313 312 310 309 309 310 310 310 309 308 306 306 306 305 305 304 301 298 296 293 288 282 279 278 276 274 274 271 268 266 264 262 261 263 264 260 255 255 256 254 252 252 253 252
311 310 312 315 316 319 321 319 321 322 321 321 321 320 319 318 317 317 315 314 312 312 312 312 313 313 313 311 308 307 307 307 307 307 305 302 299 296 294 289 284 281 279 277 275 276 274 270 267 267 267 266 265 265 261 257 256 255 252 251 252 254 253
307 308 310 311 313 319 322 321 322 322 322 322 321 320 318 318 317 316 315 313 313 313 314 314 315 316 315 313 310 308 309 310 309 308 306 303 301 299 297 294 291 288 284 279 277 277 275 271 267 266 268 268 265 264 262 259 257 255 252 251 251 251 251
306 307 307 308 315 322 323 322 323 323 323 322 319 318 317 317 317 316 314 313 313 314 315 316 317 318 317 314 311 311 312 311 310 307 306 304 303 304 303 299 296 294 289 283 281 282 277 270 266 266 267 267 263 261 262 261 257 254 254 253 251 248 248
307 306 307 312 319 323 322 322 323 323 322 319 317 317 317 317 318 317 315 314 314 315 316 317 319 319 318 315 314 314 314 312 311 308 307 306 307 308 308 304 300 295 290 285 283 287 285 273 266 267 267 266 262 257 256 257 254 252 252 253 252 251 250
307 308 311 316 320 322 321 322 323 322 320 317 316 317 317 318 319 318 316 314 314 316 316 318 320 320 319 317 316 316 316 315 314 312 311 310 310 311 311 309 304 296 292 289 284 289 296 283 268 267 265 264 262 256 252 253 252 253 254 254 255 256 255
309 311 314 317 319 320 321 321 321 320 317 316 317 317 317 318 318 318 316 314 314 316 317 318 320 320 319 317 317 317 318 318 317 316 315 314 313 313 312 311 307 298 296 297 288 292 305 298 275 266 264 263 260 255 254 255 255 257 260 259 258 258 258
311 313 315 317 318 319 319 318 317 317 316 316 317 317 317 317 317 316 314 313 314 316 317 319 320 320 318 317 317 318 320 321 320 319 318 316 316 317 315 312 308 300 300 304 298 298 307 302 280 268 267 265 260 256 255 258 261 265 266 264 263 262 261
312 313 314 315 316 317 317 315 314 315 315 317 317 316 316 315 315 314 313 313 314 316 318 319 320 320 318 317 318 320 322 322 321 321 320 319 321 323 320 314 308 303 302 304 303 301 303 298 282 272 273 272 266 261 259 261 265 265 266 265 263 262 260
309 311 313 314 314 315 314 312 312 313 315 316 315 314 314 313 313 313 312 312 313 316 318 319 319 319 317 317 319 321 322 322 322 322 321 321 322 325 325 319 311 308 308 307 306 305 301 294 283 277 279 278 274 270 267 265 262 262 268 268 259 254 253
305 309 312 312 312 313 312 310 311 312 313 313 312 312 313 312 312 312 311 312 313 315 317 318 319 318 317 316 318 320 321 323 323 323 322 321 321 323 325 319 311 312 316 314 313 313 306 293 285 283 284 282 277 274 272 268 262 263 272 271 255 247 248
303 308 309 309 311 312 310 309 309 309 309 310 310 311 312 312 312 312 312 313 314 315 317 318 317 317 316 315 317 318 320 322 324 324 323 321 320 321 324 320 309 308 320 322 320 318 311 296 284 284 286 285 280 275 272 271 267 264 268 266 253 244 244
305 307 306 309 311 310 308 307 306 306 307 310 311 312 313 314 314 314 314 314 314 316 317 317 315 314 313 313 315 316 317 319 323 325 323 321 319 320 324 324 313 302 307 315 314 312 308 299 287 284 285 286 283 277 275 275 272 262 256 257 252 243 241
306 305 305 308 309 307 305 304 304 305 308 310 311 313 314 315 316 315 315 314 314 315 317 317 314 312 309 309 312 314 315 317 320 323 324 323 321 321 323 326 322 308 302 307 309 310 309 301 289 286 289 289 283 278 275 274 273 260 248 246 246 243 241
304 304 306 306 305 303 302 302 303 305 307 309 312 313 314 314 315 315 314 313 313 316 318 317 315 313 308 305 308 311 313 315 316 319 323 324 324 323 322 324 324 317 312 311 309 313 316 307 291 285 290 292 287 280 272 266 260 250 244 243 244 243 243
303 304 304 303 302 302 302 303 304 304 306 309 311 312 312 314 315 314 312 312 314 318 320 317 316 317 313 307 307 310 311 313 314 315 319 323 325 325 324 323 321 319 320 322 320 320 320 313 299 288 290 296 295 285 272 260 249 243 242 244 246 243 238
304 304 302 303 304 303 303 304 304 305 307 309 309 310 312 314 314 313 312 312 315 318 320 316 312 314 314 310 308 308 308 310 311 312 314 319 324 327 325 323 322 321 324 329 332 331 322 313 308 300 293 299 306 296 278 261 248 242 239 241 247 241 217
304 304 304 305 306 306 306 306 306 307 309 308 308 309 312 314 313 313 314 314 314 317 318 315 309 306 306 306 306 305 305 307 309 309 311 314 320 327 327 323 319 320 325 328 331 332 323 313 312 309 299 302 326 323 294 269 253 245 237 236 242 233 214
303 303 305 307 308 309 310 309 308 309 309 307 308 309 312 313 314 314 314 312 311 314 318 316 310 305 302 302 303 304 306 308 307 307 308 310 317 325 328 325 319 316 319 322 323 324 320 316 320 321 311 304 325 1 343 279 257 248 234 227 227 217 210
302 303 305 308 309 311 312 310 308 307 306 306 308 309 311 312 311 312 313 312 311 315 318 316 312 307 303 300 298 300 306 308 306 304 305 308 315 322 326 326 321 316 311 309 310 311 311 321 331 330 321 305 302 3 33 14 248 243 236 222 209 199 190
303 304 305 307 309 310 310 308 305 304 304 305 307 308 308 308 308 309 311 311 312 315 317 315 311 307 304 300 295 295 301 304 303 302 304 308 312 318 321 322 322 319 311 300 296 296 299 318 334 327 323 320 303 312 17 43 75 225 232 224 209 209 215
301 303 303 305 306 307 306 304 301 301 303 304 305 306 306 306 307 308 309 310 312 316 316 314 310 305 302 299 295 294 296 300 300 302 305 308 311 314 316 317 319 319 313 300 292 291 292 305 323 321 322 328 322 299 289 342 40 135 219 222 214 216 226
300 302 302 302 303 304 302 299 297 298 301 303 304 306 306 306 307 308 309 310 314 316 315 310 306 303 300 298 297 296 295 296 298 301 305 308 309 311 312 312 313 314 312 304 298 298 297 298 303 309 315 321 322 315 296 284 299 355 204 221 217 215 219
297 298 298 298 299 300 298 295 295 299 303 305 306 307 306 306 308 309 310 313 315 314 311 305 301 299 299 297 296 295 293 294 296 299 303 306 307 308 308 307 306 306 306 306 303 303 305 303 299 300 306 312 314 317 317 302 285 284 299 263 225 220 220
295 295 295 296 297 298 298 296 298 302 305 306 306 306 305 307 310 309 309 313 314 310 306 302 297 296 297 297 295 293 292 295 297 299 301 303 304 305 305 305 305 302 301 301 302 302 305 307 307 302 302 306 309 311 314 314 302 287 284 292 274 236 225
296 295 295 294 295 297 298 298 300 303 304 304 304 304 305 308 311 309 308 311 311 307 304 300 294 292 293 294 294 293 291 294 298 300 301 302 304 304 303 304 305 303 300 297 297 298 300 303 307 308 305 303 306 308 310 311 312 308 299 290 287 273 233
293 293 293 292 294 296 297 298 300 302 302 301 302 304 306 309 311 309 308 309 308 305 303 299 292 289 289 288 287 288 287 290 295 300 302 304 305 305 303 304 305 304 301 297 294 293 294 297 301 304 303 300 300 304 307 309 310 312 313 305 291 280 261
291 291 291 292 294 296 297 297 299 301 301 301 303 304 305 308 309 309 308 308 306 303 301 297 292 289 288 285 283 284 285 286 291 295 298 300 301 302 303 304 305 304 301 298 294 291 290 291 294 297 298 298 297 297 300 305 309 310 312 313 306 288 271
291 291 292 293 294 295 296 296 297 298 300 302 303 303 303 305 305 305 305 306 306 305 302 298 292 288 288 287 286 287 287 287 289 291 293 294 295 298 299 300 301 301 299 296 294 292 289 287 287 289 292 294 295 294 292 295 301 306 309 310 311 304 287
292 292 292 293 293 293 294 294 295 295 298 300 300 299 300 302 302 301 300 300 302 302 300 296 290 284 283 283 284 285 285 286 288 289 291 292 294 296 296 297 297 297 296 295 294 293 292 290 287 286 287 288 289 290 288 285 288 295 301 302 302 302 299
291 291 292 292 292 291 291 292 293 294 297 298 297 296 298 300 299 295 292 293 295 296 294 291 289 287 286 285 285 286 287 288 288 287 288 291 295 296 295 294 294 295 295 293 291 291 294 296 295 292 289 288 287 286 286 283 279 280 286 292 294 294 293
Height
5904 5902 5900 5897 5895 5894 5892 5890 5888 5886 5883 5880 5878 5875 5873 5870 5867 5865 5863 5860 5858 5855 5852 5850 5846 5842 5839 5836 5833 5831 5828 5825 5821 5819 5818 5816 5814 5812 5811 5810 5810 5810 5810 5810 5809 5808 5808 5808 5808 5807 5806 5806 5807 5807 5806 5807 5809 5809 5808 5810 5812 5813 5814
5902 5900 5897 5895 5894 5892 5890 5887 5885 5883 5881 5878 5876 5873 5870 5867 5864 5861 5858 5855 5853 5850 5848 5845 5842 5839 5835 5832 5829 5825 5823 5820 5818 5816 5813 5811 5809 5806 5804 5804 5804 5804 5805 5804 5803 5803 5802 5802 5802 5800 5799 5801 5802 5801 5801 5801 5803 5803 5802 5803 5805 5807 5808
5899 5897 5895 5893 5891 5889 5887 5885 5883 5881 5878 5876 5873 5870 5867 5864 5861 5858 5854 5851 5848 5845 5843 5840 5837 5834 5831 5827 5824 5821 5818 5816 5813 5811 5809 5806 5804 5802 5799 5798 5797 5798 5798 5798 5796 5796 5795 5795 5795 5793 5793 5794 5796 5796 5796 5795 5796 5796 5796 5796 5798 5801 5802
5896 5894 5892 5890 5889 5887 5884 5882 5880 5878 5875 5872 5870 5867 5864 5860 5857 5854 5850 5846 5843 5840 5837 5834 5831 5828 5825 5822 5819 5816 5813 5810 5808 5806 5803 5800 5798 5796 5794 5792 5791 5790 5790 5790 5789 5788 5788 5788 5788 5787 5787 5787 5788 5788 5789 5790 5790 5790 5789 5789 5791 5794 5796
5894 5891 5889 5887 5886 5883 5881 5879 5876 5874 5871 5868 5866 5863 5860 5856 5853 5850 5847 5843 5839 5836 5832 5829 5826 5822 5819 5816 5814 5811 5807 5804 5802 5800 5798 5795 5792 5790 5788 5786 5785 5784 5784 5783 5783 5782 5781 5781 5781 5781 5780 5780 5780 5780 5782 5783 5783 5784 5784 5783 5785 5787 5789
5891 5888 5886 5884 5882 5880 5877 5874 5871 5870 5867 5864 5861 5858 5855 5852 5849 5846 5843 5840 5836 5832 5828 5825 5822 5818 5814 5811 5808 5805 5802 5800 5797 5795 5792 5790 5787 5785 5782 5780 5779 5778 5777 5777 5777 5776 5776 5776 5775 5774 5774 5773 5773 5773 5775 5776 5776 5778 5778 5777 5778 5780 5782
5887 5885 5883 5881 5879 5877 5874 5870 5868 5865 5862 5859 5855 5852 5850 5847 5844 5842 5839 5836 5833 5829 5825 5822 5818 5814 5810 5807 5803 5800 5797 5795 5792 5790 5788 5785 5782 5780 5778 5776 5773 5772 5771 5771 5770 5770 5770 5770 5769 5768 5767 5766 5766 5767 5769 5770 5771 5772 5771 5771 5772 5774 5776
5884 5881 5880 5878 5876 5874 5871 5867 5864 5861 5858 5854 5851 5848 5846 5843 5840 5837 5834 5831 5828 5825 5821 5817 5814 5810 5807 5803 5799 5796 5793 5790 5788 5786 5784 5781 5779 5776 5773 5771 5768 5766 5765 5765 5764 5763 5763 5763 5762 5761 5760 5760 5760 5761 5763 5764 5765 5765 5765 5766 5767 5769 5770
5881 5879 5877 5876 5874 5872 5869 5864 5860 5857 5854 5851 5848 5844 5842 5839 5835 5832 5829 5826 5823 5819 5816 5812 5809 5805 5802 5799 5796 5792 5789 5786 5783 5781 5779 5777 5775 5772 5769 5766 5764 5762 5761 5760 5759 5758 5757 5756 5756 5756 5755 5755 5755 5756 5757 5758 5759 5760 5761 5762 5763 5764 5765
5878 5876 5875 5873 5871 5869 5865 5861 5857 5854 5850 5847 5844 5841 5838 5835 5831 5828 5825 5821 5818 5814 5810 5807 5803 5800 5797 5794 5791 5788 5785 5783 5780 5777 5774 5772 5770 5767 5765 5762 5760 5758 5757 5756 5755 5754 5752 5751 5751 5751 5750 5750 5751 5751 5752 5753 5754 5755 5756 5757 5758 5759 5760
5876 5874 5872 5869 5867 5864 5860 5857 5854 5851 5847 5844 5841 5838 5835 5832 5828 5824 5821 5817 5813 5809 5805 5802 5799 5796 5793 5790 5786 5784 5782 5779 5776 5772 5769 5767 5764 5762 5760 5757 5755 5754 5752 5751 5751 5749 5748 5746 5746 5746 5746 5746 5747 5748 5747 5747 5747 5748 5750 5751 5753 5754 5756
5873 5871 5868 5865 5862 5859 5856 5853 5850 5847 5844 5841 5838 5835 5832 5828 5825 5821 5817 5813 5809 5805 5801 5798 5794 5791 5789 5785 5782 5779 5777 5775 5772 5768 5765 5762 5760 5757 5754 5752 5750 5749 5748 5747 5746 5745 5743 5742 5742 5742 5742 5742 5742 5743 5742 5742 5742 5743 5745 5746 5748 5750 5752
5869 5866 5863 5860 5858 5855 5852 5849 5846 5843 5841 5838 5835 5831 5828 5824 5821 5817 5813 5809 5806 5802 5798 5794 5791 5787 5784 5781 5778 5775 5773 5770 5767 5764 5761 5758 5755 5753 5750 5747 5745 5744 5743 5742 5741 5740 5739 5737 5737 5737 5737 5737 5737 5738 5738 5738 5739 5740 5741 5742 5743 5745 5747
5863 5861 5858 5856 5853 5851 5848 5844 5842 5840 5837 5834 5831 5827 5823 5820 5817 5813 5809 5805 5802 5798 5795 5791 5787 5784 5780 5777 5775 5772 5769 5766 5763 5760 5757 5754 5752 5749 5746 5744 5741 5740 5738 5737 5736 5735 5734 5732 5732 5732 5732 5732 5732 5733 5734 5735 5735 5736 5737 5737 5738 5739 5740
5858 5856 5853 5851 5849 5847 5844 5841 5838 5836 5833 5830 5826 5823 5819 5816 5812 5809 5805 5801 5798 5795 5791 5787 5784 5780 5777 5774 5771 5769 5766 5762 5759 5756 5753 5750 5748 5745 5743 5740 5738 5736 5735 5733 5732 5731 5730 5729 5728 5728 5728 5728 5729 5729 5731 5732 5732 5733 5733 5733 5733 5734 5735
5853 5851 5849 5847 5845 5843 5840 5837 5834 5832 5829 5826 5822 5819 5815 5812 5809 5806 5802 5797 5794 5791 5787 5784 5781 5777 5774 5771 5768 5766 5763 5759 5756 5753 5750 5747 5745 5742 5740 5737 5735 5734 5732 5730 5729 5727 5726 5725 5725 5724 5725 5725 5726 5726 5727 5728 5728 5728 5728 5729 5729 5729 5729
5848 5847 5845 5843 5841 5840 5836 5833 5830 5827 5824 5821 5818 5816 5812 5808 5805 5802 5798 5794 5790 5787 5784 5781 5777 5774 5771 5768 5766 5763 5760 5757 5753 5750 5747 5745 5742 5740 5737 5735 5733 5732 5730 5728 5726 5725 5724 5723 5722 5722 5723 5723 5724 5724 5724 5725 5724 5724 5724 5725 5724 5725 5725
5844 5843 5841 5839 5837 5835 5832 5829 5826 5823 5820 5817 5815 5812 5809 5805 5801 5798 5794 5790 5786 5783 5780 5777 5774 5771 5768 5765 5763 5761 5758 5755 5751 5748 5745 5743 5740 5737 5735 5732 5731 5730 5728 5726 5724 5723 5722 5721 5720 5720 5720 5721 5721 5721 5721 5721 5721 5721 5721 5720 5721 5721 5722
5840 5839 5838 5836 5834 5831 5828 5825 5822 5819 5816 5814 5811 5808 5805 5801 5798 5794 5790 5786 5782 5779 5776 5773 5770 5767 5764 5762 5761 5758 5756 5753 5750 5746 5743 5741 5738 5735 5732 5730 5728 5727 5726 5724 5723 5722 5720 5719 5719 5718 5719 5719 5719 5718 5718 5718 5718 5718 5718 5717 5717 5718 5720
5837 5836 5834 5833 5831 5827 5824 5821 5818 5815 5813 5810 5807 5803 5800 5797 5794 5790 5786 5782 5778 5775 5772 5770 5767 5764 5761 5759 5758 5756 5754 5751 5748 5745 5742 5739 5737 5734 5731 5728 5726 5725 5723 5722 5721 5720 5719 5718 5717 5717 5717 5717 5716 5715 5715 5715 5715 5715 5716 5715 5715 5716 5718
5832 5831 5830 5829 5827 5823 5820 5818 5814 5811 5808 5805 5802 5798 5795 5792 5789 5785 5781 5778 5774 5772 5769 5766 5763 5760 5758 5756 5755 5754 5751 5749 5746 5743 5740 5738 5735 5733 5730 5727 5725 5723 5721 5720 5719 5718 5717 5716 5716 5716 5715 5715 5714 5713 5713 5712 5712 5713 5713 5714 5714 5714 5715
5827 5827 5826 5824 5822 5820 5817 5814 5810 5807 5804 5801 5797 5794 5790 5787 5784 5781 5777 5774 5771 5768 5766 5763 5760 5757 5754 5752 5752 5751 5749 5747 5744 5742 5739 5736 5734 5732 5729 5726 5724 5722 5720 5719 5717 5716 5715 5715 5714 5714 5714 5713 5712 5711 5711 5710 5710 5711 5711 5712 5712 5712 5713
5823 5823 5821 5819 5818 5816 5813 5809 5806 5803 5800 5796 5793 5790 5786 5783 5780 5777 5774 5771 5768 5765 5762 5759 5756 5753 5751 5749 5748 5747 5746 5744 5742 5740 5737 5735 5732 5730 5728 5725 5722 5720 5719 5717 5716 5714 5714 5714 5713 5712 5712 5711 5710 5709 5709 5708 5708 5708 5709 5710 5710 5710 5711
5819 5818 5816 5814 5813 5811 5808 5805 5801 5798 5795 5792 5788 5785 5782 5779 5776 5773 5770 5767 5764 5762 5759 5756 5753 5750 5748 5747 5745 5744 5743 5741 5740 5738 5736 5733 5731 5729 5726 5724 5721 5719 5717 5716 5715 5714 5713 5713 5712 5711 5710 5710 5708 5707 5707 5706 5706 5706 5707 5708 5709 5709 5710
5813 5811 5809 5808 5807 5805 5803 5800 5796 5793 5790 5787 5784 5781 5778 5775 5772 5768 5765 5763 5760 5758 5756 5753 5750 5747 5745 5744 5743 5741 5740 5738 5737 5735 5733 5731 5729 5727 5725 5723 5720 5718 5716 5715 5714 5713 5713 5712 5711 5710 5709 5708 5707 5706 5705 5704 5704 5704 5705 5706 5707 5707 5708
5808 5806 5804 5803 5801 5799 5797 5794 5790 5787 5785 5782 5779 5776 5773 5770 5766 5764 5761 5759 5757 5755 5752 5749 5747 5744 5742 5741 5740 5739 5737 5736 5734 5733 5731 5729 5727 5725 5723 5721 5719 5717 5715 5713 5713 5712 5712 5711 5710 5708 5707 5706 5706 5704 5703 5702 5702 5702 5703 5703 5704 5705 5704
5803 5801 5799 5798 5796 5793 5791 5788 5785 5783 5780 5777 5774 5771 5768 5765 5762 5760 5758 5755 5752 5750 5748 5745 5743 5740 5739 5738 5737 5736 5735 5733 5732 5731 5729 5727 5724 5723 5721 5719 5717 5716 5714 5712 5711 5711 5711 5710 5709 5707 5705 5705 5704 5703 5701 5700 5700 5700 5701 5701 5702 5703 5701
5797 5795 5793 5792 5790 5788 5786 5783 5780 5777 5774 5772 5770 5767 5764 5761 5758 5756 5753 5750 5748 5746 5743 5741 5739 5736 5735 5734 5733 5732 5732 5731 5730 5728 5727 5724 5722 5720 5719 5717 5716 5714 5712 5711 5710 5710 5710 5709 5708 5706 5704 5704 5703 5702 5700 5699 5698 5698 5699 5699 5699 5700 5699
5792 5790 5788 5786 5785 5783 5781 5778 5775 5772 5770 5768 5765 5762 5759 5756 5753 5751 5748 5746 5744 5742 5739 5736 5734 5732 5730 5729 5728 5728 5728 5727 5726 5725 5724 5722 5720 5718 5716 5715 5713 5712 5711 5710 5708 5708 5708 5708 5706 5705 5703 5703 5702 5701 5700 5698 5697 5696 5696 5696 5697 5697 5697
5787 5785 5783 5781 5779 5778 5776 5773 5770 5768 5766 5764 5761 5758 5754 5751 5749 5746 5744 5742 5740 5738 5736 5733 5730 5727 5726 5725 5724 5724 5723 5723 5723 5722 5721 5719 5717 5716 5714 5713 5712 5710 5709 5708 5707 5706 5705 5705 5705 5703 5702 5702 5701 5700 5699 5698 5696 5695 5694 5694 5694 5695 5695
5781 5780 5778 5775 5774 5772 5770 5767 5765 5763 5761 5759 5756 5753 5750 5747 5745 5742 5739 5738 5736 5734 5732 5729 5726 5724 5723 5722 5721 5721 5720 5720 5720 5719 5718 5716 5715 5713 5712 5711 5710 5708 5707 5706 5705 5704 5703 5703 5702 5702 5701 5700 5700 5699 5698 5697 5696 5695 5693 5692 5692 5692 5693
5776 5774 5772 5769 5768 5766 5764 5762 5760 5758 5756 5754 5752 5749 5745 5743 5741 5737 5735 5734 5732 5730 5728 5726 5723 5721 5720 5719 5719 5718 5717 5717 5716 5716 5715 5714 5713 5711 5710 5709 5708 5707 5705 5704 5703 5702 5701 5701 5701 5700 5699 5699 5698 5698 5697 5696 5695 5694 5693 5692 5691 5690 5690
5770 5768 5766 5764 5762 5760 5758 5757 5756 5754 5752 5749 5747 5745 5742 5739 5737 5734 5731 5730 5728 5726 5725 5723 5720 5718 5717 5717 5717 5716 5714 5714 5713 5713 5712 5711 5710 5709 5708 5706 5705 5705 5703 5702 5702 5701 5700 5699 5699 5698 5698 5697 5697 5696 5695 5695 5694 5694 5692 5691 5690 5690 5689
5764 5762 5761 5759 5756 5754 5753 5752 5751 5749 5747 5745 5743 5740 5737 5735 5733 5730 5728 5726 5724 5722 5721 5719 5717 5716 5714 5714 5714 5713 5712 5711 5710 5710 5709 5708 5707 5706 5705 5704 5703 5702 5702 5701 5700 5699 5698 5697 5697 5697 5696 5696 5695 5694 5694 5693 5693 5693 5692 5691 5690 5689 5688
5759 5757 5755 5753 5751 5749 5747 5746 5745 5743 5741 5739 5737 5735 5732 5730 5728 5726 5724 5722 5721 5719 5718 5716 5715 5713 5711 5710 5711 5710 5709 5708 5708 5707 5707 5706 5705 5704 5703 5702 5701 5700 5699 5699 5698 5697 5696 5696 5695 5695 5694 5694 5694 5693 5693 5692 5691 5691 5691 5690 5689 5689 5688
5753 5751 5749 5747 5745 5743 5742 5740 5739 5737 5736 5734 5733 5730 5728 5725 5724 5722 5720 5718 5717 5715 5714 5713 5712 5710 5708 5708 5707 5707 5707 5706 5705 5705 5704 5703 5702 5701 5700 5700 5699 5698 5697 5697 5696 5695 5694 5693 5693 5693 5692 5692 5692 5692 5692 5691 5690 5690 5689 5689 5688 5688 5687
5746 5744 5742 5741 5739 5737 5736 5735 5734 5732 5731 5730 5728 5726 5723 5721 5719 5718 5716 5714 5712 5711 5709 5708 5708 5707 5706 5705 5704 5704 5704 5703 5702 5702 5702 5701 5700 5699 5698 5697 5697 5696 5696 5695 5694 5693 5692 5691 5691 5690 5690 5690 5689 5689 5689 5690 5689 5689 5688 5688 5687 5687 5686
5739 5737 5736 5734 5732 5731 5731 5730 5728 5727 5726 5724 5723 5721 5719 5716 5714 5713 5712 5710 5709 5707 5706 5705 5704 5703 5702 5701 5701 5701 5701 5700 5700 5699 5699 5699 5698 5697 5696 5695 5694 5693 5693 5693 5692 5691 5691 5690 5689 5688 5688 5687 5687 5687 5686 5687 5687 5687 5687 5686 5686 5686 5685